Weather in Topchikha

Russia / Altai Krai     52°49′14″N   83°07′16″E
temp.,
°C
wind,
m/s
gust,
m/s
humid.,
%
clouds,
%
prec.,
mm/h
press.,
hPa
HPBL,
m
10 august, wed
wed1001:00+18ne2278100 0.6 100727
04:00+16nne2293100 0.1 100751
07:00+17wsw1287100 0.3 100875
10:00+21wsw2365100 0.2 1008415
13:00+25w224822 0.2 1008771
16:00+28se123778 0.1 10082144
19:00+24w22494 0.3 1008141
22:00+20nne226397 0.0 100830
11 august, thu
thu1101:00+18e337486 0.0 100837
04:00+17ene2281100 0.0 100825
07:00+16ene2284100 0.4 100838
10:00+21ene2367100 0.8 1008383
13:00+27ese334321 0.8 10081297
16:00+31s1130100 0.0 10063209
19:00+18ese258097 2.7 1008328
22:00+17e2284100 4.2 100925
12 august, fri
fri1201:00+15ne2292100 4.2 100922
04:00+14ne1196100 0.0 101015
07:00+15n1194100 0.0 101030
10:00+20nne227146 0.0 1011574
13:00+25nne335046 0.0 10101287
16:00+27nne444434 0.0 10091647
19:00+27ne454378 0.0 10081345
22:00+22ene236284 0.0 100956
13 august, sat
sat1301:00+17ne238775 2.3 100933
04:00+16e229225 0.4 100925
07:00+17ne009029 0.4 100911
10:00+22sw23675 0.0 1010493
13:00+28wnw353234 0.0 10082837
16:00+29w472769 0.0 10072978
19:00+24w91148100 0.0 1008969
22:00+19sw22744 0.1 100917
14 august, sun
sun1401:00+16sw48791 0.1 1009138
04:00+15wsw366565 0.0 100892
07:00+15ssw5106814 0.0 1007208
10:00+19sw71350100 0.0 1007726
13:00+18w6106694 0.3 1007895
16:00+22w9124798 0.8 10061896
19:00+23wnw793227 0.8 10062434
22:00+16nw612472 0.0 1009591